Location: Ermatingen
(47.6706°N, 9.0857°E)
Time: 02:03:27
(UTC+00:00)

Cosmos 1428 Rocket - Pass Details

Date: 05 December 2021
Orbit: 949 x 987 km, 82.9° (Epoch: 17 January)

Event Time Altitude Azimuth Distance (km) Brightness Sun altitude
Rises 17:15:07 0° 347° (NNW) 3,635 7.5 -16.5°
Reaches altitude 10° 17:17:39 10° 344° (NNW) 2,688 6.8 -16.9°
Maximum altitude 17:23:38 58° 267° (W) 1,106 5.1 -17.9°
Drops below altitude 10° 17:29:39 10° 190° (S) 2,689 7.1 -18.9°
Sets 17:32:11 0° 187° (S) 3,637 7.7 -19.3°
